Regional Weather Roundup
Issued by NWS Goodland, KS

Home | Current Version | Previous Version | Graphics & Text | Print | Product List | Glossary On
Versions: 1 2 3 4 5 6 7 8 9 10 11 12 13 14 15 16 17 18 19 20 21 22 23 24 25 26 27 28 29 30 31 32 33 34 35 36 37 38 39 40 41 42 43 44 45 46 47 48 49 50
967
ASUS43 KGLD 120108
RWRGLD

GOODLAND FORECAST AREA HOURLY WEATHER ROUNDUP
NATIONAL WEATHER SERVICE GOODLAND KS
600 PM MST MON DEC 11 2017

...OFFICIAL OBSERVATIONS...

CITY           SKY/WX    TMP DP  RH WIND       PRES   REMARKS
GOODLAND KS    CLOUDY    39   9  29 N9        30.35R
HILL CITY KS   CLOUDY    44  26  49 N16       30.34R
IMPERIAL NEB   CLEAR     38  19  46 N12       30.37R
MCCOOK NEB     CLEAR     40  25  55 N12       30.35R
AKRON CO       CLEAR     39   7  26 N14       30.39R
BURLINGTON CO  CLEAR     42  10  27 N12       30.36R
LIMON CO       CLOUDY    29   5  36 CALM      30.41R
$$

...UNOFFICIAL OBSERVATIONS...

CITY           SKY/WX    TMP DP  RH WIND       PRES   REMARKS
COLBY KS       MOCLDY    41  19  42 N8        30.35R
LENORA KS        N/A     41  32  70 N6          N/A
NORTON KS      CLEAR     37  21  52 NW8       30.34
SHARON SPRINGS   N/A     44  11  25 NW12G18     N/A
TRENTON NEB      N/A     38  32  79 N8          N/A
KIT CARSON CO    N/A     43  11  26 MISG        N/A
YUMA CO        FAIR      41  10  28 NW9       30.38R
$$




USA.gov is the U.S. government's official web portal to all federal, state and local government web resources and services.